Total_Precipitation_Accumulation
0.00 0.00 0.01 0.01 0.01 0.02 0.03 0.06 0.12 0.20 0.15 0.22 0.30 0.40 0.53 0.66 0.86 0.86 0.85 0.83 0.92 1.13 1.33 1.53 1.81 2.24 2.64 3.08 3.44 3.34 2.63 2.06 1.73 1.44 1.08 0.91 0.89 0.80 0.71 0.69 0.64 0.61 0.56 0.52
0.01 0.03 0.03 0.02 0.02 0.03 0.04 0.07 0.12 0.17 0.13 0.12 0.23 0.48 0.60 0.68 0.81 0.77 0.74 0.62 0.67 1.06 1.42 1.72 2.01 2.16 1.96 1.96 1.96 1.49 1.16 0.95 0.80 0.69 0.52 0.42 0.38 0.36 0.34 0.35 0.35 0.33 0.37 0.40
0.02 0.04 0.03 0.02 0.03 0.04 0.07 0.08 0.09 0.15 0.16 0.19 0.32 0.60 0.74 0.67 0.65 0.55 0.54 0.60 0.96 1.41 1.69 1.95 1.85 1.57 1.35 1.23 1.01 0.67 0.50 0.50 0.43 0.35 0.26 0.23 0.21 0.21 0.21 0.22 0.22 0.22 0.23 0.26
0.01 0.03 0.03 0.04 0.04 0.04 0.07 0.06 0.04 0.04 0.11 0.30 0.43 0.82 0.92 0.78 0.69 0.47 0.49 0.78 1.28 1.57 1.76 1.60 1.04 0.68 0.60 0.55 0.52 0.54 0.54 0.44 0.33 0.28 0.20 0.15 0.13 0.13 0.13 0.15 0.15 0.17 0.16 0.16
0.03 0.03 0.03 0.04 0.04 0.03 0.04 0.03 0.03 0.05 0.12 0.28 0.50 0.92 1.07 0.82 0.63 0.41 0.33 0.43 0.78 1.02 0.90 0.54 0.29 0.19 0.23 0.31 0.48 0.70 0.71 0.50 0.34 0.29 0.24 0.22 0.20 0.18 0.17 0.17 0.18 0.20 0.20 0.20
0.04 0.04 0.04 0.03 0.03 0.03 0.03 0.04 0.09 0.17 0.28 0.55 0.59 0.74 0.91 0.73 0.59 0.43 0.26 0.30 0.53 0.54 0.34 0.18 0.13 0.16 0.23 0.27 0.35 0.44 0.53 0.60 0.53 0.47 0.37 0.34 0.33 0.31 0.28 0.26 0.25 0.25 0.26 0.28
0.09 0.08 0.06 0.03 0.03 0.03 0.03 0.04 0.24 0.55 0.71 0.68 0.46 0.61 0.81 0.50 0.37 0.27 0.15 0.13 0.15 0.16 0.16 0.18 0.20 0.22 0.20 0.16 0.15 0.17 0.21 0.31 0.37 0.40 0.42 0.42 0.41 0.37 0.32 0.28 0.24 0.27 0.25 0.27
0.14 0.14 0.08 0.04 0.04 0.04 0.03 0.03 0.08 0.15 0.21 0.29 0.38 0.69 0.73 0.43 0.21 0.09 0.04 0.03 0.02 0.03 0.05 0.07 0.09 0.08 0.07 0.07 0.08 0.07 0.08 0.09 0.12 0.14 0.18 0.22 0.28 0.27 0.26 0.30 0.24 0.25 0.29 0.29
0.04 0.04 0.04 0.03 0.04 0.02 0.02 0.02 0.02 0.03 0.06 0.19 0.45 0.63 0.46 0.25 0.13 0.05 0.03 0.02 0.01 0.01 0.01 0.01 0.02 0.03 0.04 0.03 0.04 0.04 0.04 0.04 0.04 0.05 0.05 0.06 0.11 0.15 0.16 0.17 0.16 0.17 0.24 0.26
0.02 0.02 0.02 0.02 0.03 0.03 0.02 0.02 0.02 0.03 0.06 0.13 0.32 0.63 0.61 0.28 0.17 0.07 0.03 0.02 0.02 0.01 0.01 0.00 0.01 0.01 0.01 0.02 0.02 0.03 0.04 0.03 0.03 0.02 0.02 0.02 0.04 0.08 0.10 0.11 0.12 0.15 0.18 0.21
0.01 0.01 0.02 0.02 0.03 0.04 0.03 0.02 0.03 0.04 0.05 0.07 0.18 0.34 0.27 0.20 0.13 0.06 0.02 0.00 0.00 0.00 0.00 0.01 0.00 0.00 0.01 0.01 0.01 0.02 0.02 0.02 0.02 0.02 0.01 0.01 0.01 0.02 0.06 0.11 0.15 0.18 0.20 0.20
0.01 0.01 0.01 0.03 0.04 0.04 0.03 0.04 0.03 0.04 0.04 0.05 0.09 0.15 0.14 0.13 0.09 0.04 0.01 0.00 0.00 0.00 0.00 0.00 0.00 0.00 0.01 0.01 0.01 0.01 0.01 0.01 0.01 0.00 0.00 0.00 0.00 0.00 0.01 0.03 0.08 0.14 0.20 0.21
0.01 0.01 0.02 0.09 0.12 0.08 0.04 0.04 0.04 0.04 0.04 0.04 0.10 0.18 0.14 0.05 0.03 0.01 0.00 0.00 0.00 0.00 0.00 0.00 0.00 0.00 0.00 0.00 0.00 0.00 0.00 0.00 0.00 0.00 0.00 0.00 0.00 0.01 0.01 0.01 0.01 0.04 0.10 0.16
0.01 0.00 0.01 0.05 0.08 0.05 0.06 0.07 0.06 0.04 0.03 0.03 0.05 0.12 0.06 0.02 0.01 0.01 0.00 0.00 0.00 0.00 0.00 0.00 0.00 0.00 0.00 0.00 0.00 0.00 0.00 0.00 0.00 0.00 0.00 0.00 0.01 0.02 0.03 0.03 0.03 0.03 0.04 0.09
0.01 0.01 0.00 0.00 0.01 0.04 0.06 0.08 0.05 0.03 0.02 0.03 0.03 0.04 0.02 0.01 0.01 0.01 0.00 0.00 0.00 0.00 0.00 0.00 0.00 0.00 0.00 0.00 0.00 0.00 0.00 0.00 0.00 0.01 0.01 0.01 0.01 0.02 0.03 0.04 0.05 0.06 0.07 0.08
0.01 0.01 0.01 0.00 0.01 0.02 0.05 0.07 0.04 0.02 0.02 0.02 0.02 0.02 0.02 0.02 0.02 0.01 0.01 0.01 0.01 0.01 0.00 0.00 0.00 0.00 0.00 0.00 0.00 0.00 0.01 0.01 0.01 0.01 0.02 0.02 0.03 0.04 0.05 0.05 0.06 0.07 0.09 0.12
0.02 0.01 0.01 0.00 0.02 0.02 0.07 0.05 0.03 0.03 0.03 0.03 0.04 0.04 0.04 0.04 0.04 0.03 0.02 0.02 0.02 0.01 0.01 0.01 0.01 0.00 0.00 0.00 0.01 0.01 0.01 0.01 0.01 0.01 0.02 0.03 0.05 0.06 0.07 0.07 0.09 0.11 0.14 0.17
0.04 0.03 0.01 0.01 0.02 0.05 0.07 0.03 0.04 0.04 0.04 0.05 0.09 0.09 0.07 0.06 0.07 0.07 0.05 0.03 0.02 0.02 0.01 0.01 0.01 0.01 0.01 0.01 0.01 0.01 0.01 0.02 0.02 0.02 0.03 0.04 0.06 0.08 0.10 0.12 0.15 0.19 0.22 0.22
0.07 0.06 0.03 0.03 0.04 0.05 0.05 0.06 0.06 0.06 0.07 0.08 0.11 0.10 0.08 0.07 0.06 0.06 0.06 0.06 0.05 0.04 0.04 0.04 0.04 0.05 0.05 0.04 0.05 0.04 0.04 0.04 0.04 0.04 0.06 0.08 0.11 0.14 0.17 0.20 0.24 0.27 0.28 0.26
0.10 0.10 0.08 0.06 0.07 0.09 0.08 0.10 0.09 0.08 0.11 0.14 0.18 0.17 0.14 0.11 0.14 0.14 0.11 0.09 0.08 0.07 0.05 0.05 0.06 0.06 0.05 0.06 0.06 0.08 0.08 0.08 0.09 0.10 0.12 0.14 0.19 0.25 0.28 0.32 0.36 0.37 0.37 0.32
0.17 0.17 0.11 0.07 0.07 0.08 0.11 0.11 0.11 0.17 0.22 0.26 0.28 0.22 0.20 0.19 0.17 0.17 0.13 0.09 0.08 0.07 0.06 0.05 0.04 0.04 0.04 0.06 0.08 0.12 0.14 0.15 0.16 0.17 0.19 0.21 0.27 0.33 0.34 0.37 0.39 0.41 0.40 0.37
0.16 0.21 0.21 0.16 0.20 0.21 0.19 0.14 0.18 0.23 0.23 0.23 0.20 0.14 0.13 0.11 0.11 0.13 0.09 0.07 0.06 0.05 0.04 0.03 0.04 0.06 0.07 0.08 0.13 0.17 0.18 0.18 0.19 0.20 0.22 0.25 0.28 0.29 0.28 0.35 0.38 0.41 0.43 0.40
0.13 0.16 0.17 0.19 0.24 0.24 0.21 0.20 0.19 0.16 0.11 0.07 0.05 0.04 0.03 0.04 0.07 0.06 0.04 0.04 0.03 0.03 0.02 0.02 0.03 0.05 0.07 0.10 0.16 0.19 0.19 0.19 0.21 0.23 0.25 0.26 0.25 0.26 0.30 0.36 0.37 0.39 0.41 0.39
0.10 0.09 0.11 0.15 0.20 0.19 0.19 0.17 0.12 0.08 0.05 0.03 0.02 0.03 0.03 0.03 0.03 0.02 0.01 0.01 0.01 0.01 0.01 0.02 0.03 0.06 0.08 0.09 0.11 0.14 0.17 0.21 0.24 0.25 0.25 0.24 0.26 0.27 0.33 0.40 0.42 0.44 0.42 0.37
0.06 0.06 0.07 0.13 0.20 0.21 0.18 0.13 0.08 0.05 0.03 0.02 0.02 0.03 0.03 0.03 0.02 0.02 0.01 0.01 0.01 0.01 0.02 0.03 0.07 0.10 0.11 0.09 0.08 0.09 0.14 0.22 0.30 0.31 0.29 0.27 0.28 0.31 0.33 0.37 0.40 0.37 0.36 0.30
0.05 0.06 0.06 0.10 0.17 0.23 0.22 0.15 0.09 0.06 0.05 0.05 0.04 0.04 0.03 0.02 0.02 0.01 0.01 0.00 0.01 0.02 0.05 0.08 0.12 0.13 0.11 0.09 0.08 0.10 0.17 0.27 0.37 0.37 0.31 0.29 0.29 0.33 0.35 0.35 0.36 0.30 0.21 0.19